Regional Weather Roundup
Issued by NWS

Home | Current Version | Previous Version | Graphics & Text | Print | Product List | Glossary On
Versions: 1 2 3 4 5 6 7 8 9 10 11 12 13 14 15 16 17 18 19 20 21 22 23 24 25 26 27 28 29 30 31 32 33 34 35 36 37 38 39 40 41 42 43 44 45 46 47 48 49 50
228
ASUS45 KBOU 280107
RWRCO

WEATHER ROUNDUP FOR COLORADO
NATIONAL WEATHER SERVICE DENVER/BOULDER CO
700 PM MDT THU JUL 27 2017

NOTE: "FAIR" INDICATES FEW OR NO CLOUDS BELOW 12000 FEET WITH NO
SIGNIFICANT WEATHER AND/OR OBSTRUCTIONS TO VISIBILITY.

COZ001>005-013-030-031-280200-
...NORTHWEST COLORADO...

CITY           SKY/WX    TMP DP  RH WIND       PRES   REMARKS
CRAIG          FAIR      85  45  24 NE3       30.17F
HAYDEN         FAIR      75  46  35 E16       30.21S
MEEKER         FAIR      83  49  30 NE16      30.17S
RABBIT EARS PA FAIR      63  46  55 N5        30.55S
STEAMBOAT SPGS FAIR      78  46  31 NW9       30.23S
WALDEN         NOT AVBL
$$

COZ006>008-011-280200-
...WEST CENTRAL VALLEYS...

CITY           SKY/WX    TMP DP  RH WIND       PRES   REMARKS
GRAND JUNCTION FAIR      94  46  19 W9        30.00F
MONTROSE       FAIR      88  49  25 NW12      30.11S
EAGLE          MOSUNNY   84  46  26 W7        30.17F
RIFLE          FAIR      89  50  26 NW8       30.07F
DELTA          FAIR      91  43  19 W12       30.05S
NUCLA          FAIR      86  43  22 SE9       30.15S
$$

COZ017>023-064>068-280200-
...SOUTHWEST COLORADO...

CITY           SKY/WX    TMP DP  RH WIND       PRES   REMARKS
DURANGO        FAIR      78  46  32 CALM      30.21S
CORTEZ         CLOUDY    83  49  30 NE9       30.13R
PAGOSA SPRINGS FAIR      77  42  27 CALM      30.29S
TELLURIDE      FAIR      70  47  44 CALM      30.43S
WOLF CREEK PAS FAIR      57  39  51 CALM      30.68F
$$

COZ009-010-012-014-032>034-037-058>063-280200-
...CENTRAL COLORADO...

CITY           SKY/WX    TMP DP  RH WIND       PRES   REMARKS
ASPEN          FAIR      81  41  24 VRB7      30.26F
BUENA VISTA    PTSUNNY   70  46  42 S8        30.34R
COPPER MTN     PTSUNNY   63  39  42 NW14G22   30.65F
BERTHOUD PASS  PTSUNNY   52  41  66 NW17      30.69S
COTTONWOOD PAS RAIN      61  48  63 NW5       30.50R
GUNNISON       LGT RAIN  72  49  44 SE12      30.27R
KREMMLING      FAIR      86  41  20 NW8       30.25S
LEADVILLE      CLOUDY    64  45  49 S12G21    30.42R
MONARCH PASS   CLOUDY    52  39  62 SW12      30.76S
SALIDA         PTSUNNY   66  58  75 E15G21    30.38S
SUNLIGHT       FAIR      63  41  45 W10       30.57S
WILKERSON PASS RAIN      54  52  94 NE10      30.64R VSB<1/4
$$

COZ069>075-280200-
...SAN LUIS VALLEY/SANGRE DE CRISTO MOUNTAINS...

CITY           SKY/WX    TMP DP  RH WIND       PRES   REMARKS
ALAMOSA        FAIR      74  50  42 SE10      30.28F
DEL NORTE      CLOUDY    71  49  44 SE7       30.33R
LA VETA PASS   NOT AVBL
SAGUACHE         N/A    N/A N/A N/A MISG        N/A
$$

COZ035-036-038>040-280200-
...NORTHERN COLORADO FRONT RANGE...

CITY           SKY/WX    TMP DP  RH WIND       PRES   REMARKS
DENVER INTL AP PTSUNNY   81  58  45 S14       30.12R
DMNS CITY PARK   N/A     79  58  47 E17       30.11F
AURORA         PTSUNNY   74  63  67 S16       30.16R
FRONT RANGE AP FAIR      81  59  47 S12       30.15R
ERIE MUNI ARPT FAIR      87  53  31 E10       30.09S
BOULDER MUN AP FAIR      81  55  41 NW5       30.11S
CENTENNIAL     PTSUNNY   76  60  57 S16       30.16S
BROOMFIELD     PTSUNNY   86  55  35 N9        30.13F
FORT COLLINS   FAIR      85  59  41 S7        30.10R
LONGMONT       FAIR      87  58  36 NW6       30.10F
$$

COZ041-046-047-076>085-087-088-280200-
...PIKES PEAK/PALMER DIVIDE AND SOUTHERN FOOTHILLS...

CITY           SKY/WX    TMP DP  RH WIND       PRES   REMARKS
COLO. SPRINGS  PTSUNNY   74  60  61 S12       30.24R
A. F. ACADEMY  FAIR      70  60  68 S12       30.25R
SCHRIEVER AFB  FAIR      72  59  62 S10       30.25R
CHEYENNE MTN   PTSUNNY   68  59  72 S12       30.24R
ELLICOTT       PTSUNNY  N/A N/A N/A S13       30.23R
FALCON           N/A     69  58  67 S13       30.30R
FORT CARSON    FAIR      74  61  61 S9        30.21S
LIMON          FAIR      77  62  59 SE14      30.18R
MONUMENT HILL  FAIR      68  59  73 S13       30.30R
CANON CITY     CLOUDY    79  64  61 E10       30.19R
WALSENBURG     MOCLDY    70  61  73 SW8       30.23F
TRINIDAD       FAIR      71  56  58 W18G25    30.21F
$$

COZ042>045-048>051-090-091-280200-
...NORTHEAST COLORADO...

CITY           SKY/WX    TMP DP  RH WIND       PRES   REMARKS
GREELEY ARPT   FAIR      89  59  36 S7        30.07S
AKRON          FAIR      83  58  42 SE18      30.08F
BURLINGTON     FAIR      79  63  57 SE12      30.11S
WRAY           NOT AVBL
YUMA           FAIR      81  55  41 SE12      30.07F
STERLING       FAIR      86  61  42 SE14      30.03S
HOLYOKE        FAIR      84  61  45 SE13      30.07S
FORT MORGAN    FAIR      87  54  32 SE14      30.06S
$$

COZ086-089-092>099-280200-
...SOUTHEAST COLORADO...

CITY           SKY/WX    TMP DP  RH WIND       PRES   REMARKS
PUEBLO         FAIR      80  62  54 SE9       30.13R
LA JUNTA       FAIR      80  65  59 SE14      30.12S
LAMAR          FAIR      79  65  62 SE7       30.08S
SPRINGFIELD      N/A     74  66  76 SE5       30.14R
$$




USA.gov is the U.S. government's official web portal to all federal, state and local government web resources and services.